Regional Weather Roundup
Issued by NWS Wakefield, VA

Home | Current Version | Previous Version | Graphics & Text | Print | Product List | Glossary On
Versions: 1 2 3 4 5 6 7 8 9 10 11 12 13 14 15 16 17 18 19 20 21 22 23 24 25 26 27 28 29 30 31 32 33 34 35 36 37 38 39 40 41 42 43 44 45 46 47 48 49 50
000
ASUS41 KAKQ 021915
RWRAKQ

REGIONAL WEATHER ROUNDUP
NATIONAL WEATHER SERVICE WAKEFIELD VA
200 PM EST FRI DEC 02 2016

Note: "fair" indicates few or no clouds below 12,000 feet with no
significant weather and/or obstructions to visibility. * = Denotes
station may not report precipitation (e.g., rain,snow,etc.),
thunder or fog.

VAZ042-051-052>054-056-022000-
NORTHERN VIRGINIA

CITY           SKY/WX    TMP DP  RH WIND       PRES   REMARKS
WASH NATIONAL  MOSUNNY   54  30  40 NW17G24   30.03S
DULLES         MOSUNNY   50  29  44 NW15G23   30.03F
FORT BELVOIR   SUNNY     54  28  37 NW12      30.01F
QUANTICO       MOSUNNY   55  29  36 W10       30.03F
FREDERICKSBRG* SUNNY     54  32  43 W9G16     30.01F
STAFFORD*      MOSUNNY   53  31  44 W8        30.06F
WARRENTON      SUNNY     56  21  25 W6        30.01F
CULPEPER*      MOSUNNY   55  31  40 W10       30.03F
MANASSAS*      MOSUNNY   54  28  37 NW14G20   30.02F
LEESBURG*      PTSUNNY   50  34  53 NW16      30.04F
WINCHESTER     PTSUNNY   43  28  56 W20       30.04F
FRONT ROYAL*   MOCLDY    46  30  53 W13       30.03S
LURAY*         CLOUDY    48  32  53 W13G18    30.03S
$$

VAZ048-049-060>072-079>083-022000-
CENTRAL AND SOUTH CENTRAL VIRGINIA

CITY           SKY/WX    TMP DP  RH WIND       PRES   REMARKS
RICHMOND       MOSUNNY   54  29  38 W15       30.03F
CHESTERFIELD*  FAIR      55  25  30 NW10      30.05F
PETERSBURG*    SUNNY     55  29  36 SW12G18   30.04F
HANOVER        SUNNY     54  29  38 W12       30.04F
TAPPAHANNOCK*  SUNNY     55  25  31 SE12      30.03F
QUINTON*       FAIR      54  31  41 SW7G17    30.03F
CHARLOTTSVILLE SUNNY     54  30  40 VRB3      30.02F
GORDONSVILLE*  FAIR      53  30  41 W9        30.02F
ORANGE*          N/A     52  30  43 W10G17    30.04F
LOUISA*        SUNNY     57  34  41 W9        30.01F
BUMPASS*       FAIR      52  31  44 W6G18     30.02F
FARMVILLE*     SUNNY     55  32  41 SW8       30.03F
CREWE*         FAIR      53  31  42 W8G16     30.05F
FORT PICKETT*  FAIR      54  22  29 SW8       30.05F
CHASE CITY*    FAIR      53  28  38 W12       30.06F
CLARKSVILLE*   FAIR      54  32  43 W8        30.07F
SOUTH HILL*    SUNNY     53  32  44 W8G17     30.12F
LAWRENCEVILLE* FAIR      54  29  39 W7        30.05F
EMPORIA*       SUNNY     54  32  43 SW7       30.07F
$$

VAZ088>098-022000-
SOUTHEAST VIRGINIA

CITY           SKY/WX    TMP DP  RH WIND       PRES   REMARKS
NORFOLK        SUNNY     55  30  38 W12G17    30.04F
VIRGINIA BEACH SUNNY     54  28  36 W8        30.03F
NORFOLK NAVAL  MOSUNNY   54  29  38 W13       30.05F
WEST POINT*    SUNNY     55  28  35 SW7       30.05F
SALUDA*        FAIR      53  32  43 W8        30.02F
NEWPORT NEWS   SUNNY     55  31  39 W13       30.04F
LANGLEY AFB    SUNNY     55  31  40 W14       30.03F
FORT EUSTIS    SUNNY     57  32  38 VRB7      30.01F
WILLIAMSBURG*  SUNNY     57  34  41 W12G18    30.05S
HR EXEC AP*    FAIR      55  30  38 W8G18     30.03F
FRANKLIN*      SUNNY     55  31  40 W8        30.06F
US460-WAKEFLD  SUNNY     55  31  39 W7        30.04F
$$

VAZ020-022-025-037-045-022000-
WEST CENTRAL AND SOUTHWEST VIRGINIA

CITY           SKY/WX    TMP DP  RH WIND       PRES   REMARKS
STAUNTON*      MOSUNNY   47  29  49 W9        30.04F
WAYNESBORO*    CLOUDY    48  27  44 SW13G20   30.02F
HOT SPRINGS VA CLOUDY    34  27  75 W21G26    29.98R WCI  22
LYNCHBURG      SUNNY     51  28  41 NW12G21   30.07F
DANVILLE       SUNNY     54  30  40 SW12G22   30.09F
SOUTH BOSTON*  FAIR      55  27  34 W8G17     30.07F
MARTINSVILLE   SUNNY     54  28  37 W6        30.11S
ROANOKE        MOSUNNY   51  28  41 W13G22    30.10S
BLACKSBURG     CLOUDY    46  30  53 W10       30.11F
DUBLIN*        SUNNY     47  31  53 NW12G20   30.10F
MARION*        SUNNY     46  29  53 W21G28    30.11F
HILLSVILLE*    PTSUNNY   43  29  59 W8G22     30.08S
RICHLANDS*     FAIR      44  31  60 W8        30.12F
WISE*          SUNNY     46  27  46 W15       30.14F
ABINGDON*      SUNNY     48  29  48 W12G18    30.14F
$$

MDZ021>025-VAZ099-100-022000-
SOUTHERN MARYLAND AND THE DELMARVA PENINSULA

CITY           SKY/WX    TMP DP  RH WIND       PRES   REMARKS
PATUXENT RIVER MOSUNNY   53  29  39 NW14      30.01F
BAY BRIDGE APT SUNNY     50  30  46 NW15      30.01S
LEONARDTOWN    SUNNY     52  30  43 W14       30.03S
DOVER          SUNNY     51  32  48 W16       29.96S
GEORGETOWN     SUNNY     52  26  36 W15G22    29.98F
EASTON         SUNNY     52  27  37 NW14G23   30.03F
CAMBRIDGE      SUNNY     50  30  46 NW10G18   30.00S
SALISBURY      SUNNY     52  29  41 W15G24    29.99F
OCEAN CITY     SUNNY     52  28  39 NW13G18   29.98F
WALLOPS ISLAND MOSUNNY   51  32  48 W15G23    30.01F
ACCOMACK*      SUNNY     52  33  47 W12       30.02S
$$

NCZ012>017-030>032-022000-
NORTH CENTRAL AND EASTERN NORTH CAROLINA

CITY           SKY/WX    TMP DP  RH WIND       PRES   REMARKS
ROANOKE RAPIDS FAIR      55  34  44 W6        30.06F
RALEIGH        MOSUNNY   68  28  22 SW13G18   30.09F
ELIZABETH CITY SUNNY     54  31  41 W9        30.05F
AHOSKIE*       SUNNY     54  31  41 CALM      30.07F
EDENTON*       SUNNY     56  33  42 CALM      30.07F
CURRITUCK*     SUNNY     55  31  40 W8        30.05F
KILL DEVIL HLS SUNNY     52  37  56 CALM      30.04F
MANTEO         SUNNY     52  33  47 NW8       30.06F
CAPE HATTERAS  SUNNY     56  39  53 VRB3      30.05F
TARBORO*       NOT AVBL
GOLDSBORO      SUNNY     58  29  34 W12       30.06F
WASHINGTON     SUNNY     56  31  38 W7        30.07F
GREENVILLE     SUNNY     55  32  41 W8        30.09F
NEW BERN       SUNNY     56  32  40 N10       30.08F
WILMINGTON     SUNNY     59  32  36 NW7       30.09F
$$

VAZ048-022000-
ELSEWHERE

CITY           SKY/WX    TMP DP  RH WIND       PRES   REMARKS
HARRISBURG PA  PTSUNNY   46  29  51 W20G28    29.99R
BALTIMORE      MOSUNNY   48  28  46 W18G28    30.01S
ANNAPOLIS      SUNNY     52  29  41 NW14G25   30.01S
ANDREWS AFB    PTSUNNY   50  29  43 NW10      30.00S
PHILADELPHIA   MOSUNNY   51  29  42 W24       29.94F
HENDERSON NC   SUNNY     51  28  41 W3        30.08F
GREENSBORO     MOSUNNY   55  29  36 W16       30.10F
ROCKY MOUNT    SUNNY     57  31  37 W8        30.07F
$$

VAZ100-022000-
MARINE

STATION/POSITION TIME  TEMP    WIND        PRES    WAVE   SWELL
                       AIR SEA DIR/SP/G            HT/PER HT/PER
                 (UTC) (F)     (DEG/KT/KT) (MB)    (FT/S) (FT/S)
BRANDYWINE LGT   1842   48     300/ 21/ 25   N/A
CAPE MAY NJ      1842   50 49  300/ 15/ 20 1014.2F
LEWES DE         1842   49 51  300/ 22/ 25 1014.8F
OCEAN-CITY-INLET 1842   51 52  320/ 14/ 18 1015.6F
WACHAPREAGUE VA  1848   52 54  260/  7/ 14 1016.7F
THOMAS POINT MD  1900   49 51  300/ 14/ 15   N/A
GOOSES REEF MD   1900   52 51  300/ 12/ 17 1016.7    1/ 3
COVE POINT MD    1848   50     320/ 10/ 15 1016.8F
SOLOMONS ISLAND  1842   51 52  300/  7/ 15   N/A
BISHOPS HEAD MD  1848   49 50  270/ 13/ 14 1016.7F
PINEY POINT MD   1836          330/ 11/ 13   N/A
POTOMAC MD       1900   51 53  320/ 12/ 14 1015.8    1/ 2
CAMBRIDGE MD     1848   50 49  310/ 13/ 18 1015.3F
LEWISETTA VA     1848   52 52  300/ 11/ 13 1016.2F
RAPPAHANNOCK LGT 1836          270/ 11/ 12 1017.3F
STINGRAY PT      1900   51     310/ 10/ 12 1017.0    1/ 2
YORK RVR RNG VA  1848   53     260/ 12/ 15 1016.4F
YORKTOWN VA      1848   52 54  270/ 12/ 17 1016.6F
JAMESTOWN VA     1900   53 55  280/ 10/ 16   N/A     0
DOMINION TERM VA 1848   52     290/ 11/ 15 1017.1F
KIPTOPEKE VA     1836      54  260/  6/  7   N/A
CHES BAY BRIDGE  1836   51 54  280/ 12/ 13 1017.2F
CAPE HENRY VA    1836   52     290/  9/ 13   N/A
WILLOUBY STN VA  1836   51     240/  8/ 11 1018.0F
S CRANEY ISL VA  1836   53     240/  6/ 12 1017.2F
CAPE HENRY BUOY  1842      56                N/A     2/ 5
1ST LANDING BUOY 1900   51 54              1017.4    1/ 3
CAPE CHARLES BUO 1826      57                N/A     2/ 8
OFFSHORE WE BUOY 1851      57                N/A     3/ 8
64NM E OF VA BCH 1850   51 60  310/ 14/ 17 1016.7F   4/ 6   2/ 6
DUCK PIER NC     1836   51 57  280/  4/  6 1017.1F
44100 DUCK FRF   1835      57                N/A     3/ 6
OREGON INLET NC  1836   52 58  310/  8/ 11 1017.6F
HATTERAS NC      1836   52 62  320/  9/ 11 1017.4F
DIAMOND SHLS NC  1850   55 77  340/ 10/ 16 1017.6F   4/ 7   3/ 7
CAPE LOOKOUT NC  1800   55     320/  6/  8 1018.3F
$$



USA.gov is the U.S. government's official web portal to all federal, state and local government web resources and services.